Theta_e
343 344 344 344 344 344 345 345 345 344 343 342 342 341 340 341 347 353 354 357 354 355 354 347 346 343 340 336 334 325 321 319 318 318 317 318 318 316 314 315 316 314 315
341 342 342 343 343 344 344 345 345 345 345 344 344 345 346 347 350 357 357 354 358 357 350 345 342 343 338 334 323 312 313 315 319 320 318 316 316 313 314 317 317 314 315
341 340 341 341 342 344 344 345 345 345 345 345 345 345 347 349 356 356 355 359 357 355 346 344 343 339 333 319 314 317 318 319 318 318 317 315 313 312 315 317 317 315 314
341 340 340 341 342 343 342 343 344 345 345 344 345 346 348 349 357 359 360 360 357 346 346 341 338 332 320 312 312 317 319 318 319 317 315 313 314 314 316 317 318 314 314
348 342 338 340 342 342 342 343 342 343 343 343 345 348 349 354 360 359 362 359 352 346 342 337 334 322 312 312 319 314 319 318 318 316 313 313 315 315 314 316 317 317 314
345 344 343 341 340 342 342 343 345 345 342 344 345 350 359 359 358 362 360 358 347 344 341 335 324 316 310 310 310 308 307 317 317 315 312 313 314 313 313 315 316 316 314
343 344 344 344 341 342 343 344 345 345 342 344 346 351 359 360 359 363 355 350 347 343 336 331 320 313 310 310 309 309 308 306 305 312 311 308 311 311 311 314 316 317 314
343 343 344 344 343 343 344 344 345 345 343 344 346 354 362 358 360 356 353 348 345 339 335 326 319 311 312 318 319 317 316 307 305 305 302 301 303 308 312 315 316 317 316
345 344 344 344 345 344 344 344 345 343 342 344 349 360 355 358 358 356 352 348 345 338 333 323 315 311 310 311 319 314 318 313 307 303 304 304 303 309 316 314 316 318 318
352 345 345 345 344 344 343 343 343 341 342 353 354 360 357 359 357 353 350 348 345 338 331 321 313 311 310 310 319 318 317 316 314 312 312 310 309 309 315 315 314 316 316
354 349 345 345 344 344 343 341 340 339 353 348 360 352 359 361 356 353 349 347 344 336 329 321 312 311 310 309 312 310 305 306 311 310 311 309 308 310 313 313 314 314 316
350 348 346 346 345 344 341 339 338 341 348 357 350 355 360 360 354 351 348 346 342 333 328 322 313 310 310 309 308 306 307 315 311 311 310 310 307 310 310 312 312 316 317
348 347 346 345 342 336 336 338 342 345 358 348 350 356 360 359 354 351 347 345 338 333 325 320 312 310 311 309 308 307 314 314 312 310 310 310 308 308 310 313 315 315 317
347 346 342 340 339 339 343 345 357 352 359 352 351 356 361 358 354 351 347 344 337 333 324 315 312 310 314 310 308 313 314 313 312 310 310 310 308 308 310 313 317 317 315
345 343 342 345 345 345 352 355 358 356 357 354 350 352 359 358 356 352 348 345 335 332 323 315 312 315 316 315 316 315 310 312 311 311 311 310 309 308 310 312 316 317 317
357 352 353 355 348 356 352 350 351 354 350 350 351 353 357 360 356 352 349 346 333 328 322 318 319 318 318 317 317 316 314 311 311 310 311 310 309 308 309 309 313 314 316
361 358 358 359 358 362 359 359 356 352 355 354 354 357 361 360 356 353 350 347 337 328 322 321 321 319 318 317 316 316 315 312 308 311 311 311 310 308 309 309 309 311 316
367 365 364 363 361 359 354 355 356 356 358 358 357 359 363 358 356 352 349 346 337 330 322 321 321 320 318 318 316 316 315 310 311 311 311 311 310 309 309 309 309 309 313
364 364 363 362 361 358 354 355 357 359 360 361 360 362 363 358 355 352 349 346 337 327 322 322 321 320 319 318 317 317 316 314 311 311 311 311 311 309 308 307 307 308 309
367 365 364 362 358 361 359 358 360 361 362 363 363 363 363 359 354 352 348 343 338 327 322 322 321 320 319 318 318 318 316 314 310 311 311 311 311 310 309 309 309 309 309
358 358 360 363 362 360 359 355 353 357 362 361 362 362 363 360 358 353 351 347 336 327 323 322 321 320 318 318 318 318 317 315 314 312 311 310 310 310 310 309 309 309 309
349 352 355 356 357 358 360 363 361 358 354 352 353 358 360 359 358 353 351 348 341 330 324 323 321 321 319 317 316 317 317 315 315 313 310 310 310 310 310 309 310 309 309
341 336 349 353 353 354 353 357 358 361 359 357 353 353 354 356 355 354 351 349 342 333 328 325 322 320 319 317 311 312 316 316 315 313 310 310 310 310 310 310 309 309 310
328 329 338 345 348 349 348 349 351 354 354 354 356 356 355 355 354 354 353 350 347 339 329 336 326 322 320 317 312 309 316 316 315 314 311 310 310 309 310 310 309 310 310
319 322 326 329 334 343 346 348 347 348 350 352 353 352 351 350 351 351 350 349 348 346 340 337 337 326 322 319 316 311 310 315 315 314 311 311 310 309 310 310 309 309 310
318 317 320 323 327 332 338 342 344 346 347 348 349 350 350 349 348 348 348 347 347 344 341 336 341 335 326 320 318 315 310 309 310 312 313 312 311 310 310 310 310 309 309
Wind_Speed
33 31 30 29 28 27 26 24 20 19 18 17 17 17 17 18 16 15 13 11 13 11 11 10 7 6 4 5 6 8 8 8 6 6 8 12 11 15 17 16 14 10 12
33 32 29 27 28 29 29 27 23 21 19 16 17 14 13 14 14 11 9 10 10 8 7 7 7 5 6 7 8 7 8 9 6 8 10 11 13 15 17 15 12 10 8
34 33 30 28 27 26 24 25 25 23 20 16 17 13 13 13 10 8 9 9 7 5 6 6 6 5 6 7 6 8 8 8 9 10 11 13 15 18 18 15 12 12 7
33 34 31 29 27 23 21 23 24 24 20 18 16 15 12 11 6 7 8 6 4 5 5 6 5 5 7 8 9 10 10 10 11 11 13 15 17 18 18 18 15 13 8
36 37 33 30 28 27 26 21 20 18 17 16 15 13 10 7 5 5 6 2 3 4 7 6 5 6 9 11 8 10 9 10 11 13 14 15 17 20 21 19 15 15 12
35 36 36 32 26 24 24 26 24 19 17 15 15 11 7 3 9 5 3 2 3 4 6 6 6 8 10 10 12 12 14 13 14 13 14 15 18 20 18 18 17 17 17
34 34 35 35 31 28 27 27 24 19 18 16 14 9 5 8 5 3 2 4 3 5 6 6 9 7 9 10 11 13 15 15 17 16 16 17 17 20 18 18 18 13 14
33 33 33 34 34 30 28 26 23 20 19 17 13 9 9 6 4 2 4 4 4 6 6 7 5 7 9 9 8 10 10 13 15 17 22 21 21 26 17 17 18 16 11
32 32 32 32 32 30 29 26 23 21 20 17 12 9 9 7 5 6 6 5 6 7 6 6 6 8 9 9 7 9 8 10 14 18 21 23 24 29 28 17 19 16 11
28 33 32 31 30 29 27 25 23 22 20 13 12 12 9 8 6 6 7 6 7 8 7 7 7 8 8 8 8 7 8 9 9 12 16 18 17 20 27 27 23 19 17
24 27 31 30 29 25 24 25 23 22 16 15 15 13 11 11 8 10 10 7 7 9 8 8 8 8 8 8 10 7 10 11 13 12 14 15 15 16 18 25 35 26 25
25 28 30 29 26 26 26 25 23 21 18 17 17 15 15 14 10 12 13 9 7 10 11 11 10 10 9 8 10 9 12 13 8 11 13 15 15 14 16 19 27 31 28
26 28 29 27 27 27 26 24 22 21 18 19 19 20 19 18 15 16 15 14 11 11 11 10 11 11 10 8 9 10 13 7 9 10 12 14 15 15 15 16 18 25 33
26 28 28 28 27 25 23 22 18 19 18 19 22 23 22 21 20 20 21 19 15 13 12 13 12 12 11 8 9 9 7 7 8 9 11 12 13 14 16 16 18 17 23
24 27 28 26 26 25 20 17 17 17 18 18 19 21 23 23 21 20 21 21 19 16 15 15 15 13 11 9 7 6 7 7 8 9 10 11 12 13 15 16 16 17 19
16 20 20 18 23 19 22 23 22 19 18 17 15 14 18 18 14 18 19 18 17 16 16 15 14 13 12 11 10 8 7 8 7 8 9 10 11 12 14 16 17 18 19
9 14 16 16 17 17 17 15 17 19 16 18 19 18 14 11 15 19 21 19 18 19 17 16 14 15 14 12 12 11 9 8 10 8 8 9 10 11 13 15 16 18 20
6 14 12 12 12 11 14 15 14 16 17 19 21 23 21 15 18 19 23 24 25 22 17 17 17 16 16 14 13 12 11 10 9 9 9 9 10 9 10 13 14 16 17
8 7 8 7 7 9 11 12 13 15 14 16 21 23 23 22 20 24 25 28 29 25 20 20 18 18 18 17 15 15 14 12 11 10 10 9 10 11 12 13 16 16 17
10 11 12 6 5 5 5 6 11 13 14 15 18 23 26 25 27 31 33 30 27 26 22 21 21 21 20 19 19 17 16 16 14 12 11 11 11 11 11 11 13 14 14
8 6 11 11 8 3 2 4 6 8 12 14 17 19 22 24 26 29 36 37 26 26 24 22 21 24 25 22 20 19 18 17 16 14 13 12 12 12 12 12 12 13 14
3 0 6 6 4 3 7 7 7 8 9 10 13 16 16 27 31 32 35 36 28 26 22 23 22 21 22 24 24 21 20 19 18 17 17 15 14 13 13 12 11 12 14
5 8 3 5 4 8 9 11 12 14 15 13 12 16 15 20 27 31 37 38 32 27 30 26 23 21 21 24 26 25 22 22 21 20 19 19 17 16 15 15 13 12 11
8 9 5 4 4 7 12 10 11 10 12 12 15 16 15 17 23 26 33 39 40 34 28 32 28 25 27 29 27 27 24 23 23 23 22 20 19 20 17 16 16 14 12
7 6 7 3 5 8 10 7 9 9 9 9 11 12 12 13 18 24 32 37 45 44 38 32 35 31 33 29 29 29 29 29 27 25 24 22 21 21 18 17 17 17 15
5 2 5 7 7 7 8 10 8 7 8 8 9 13 16 18 17 20 21 27 39 44 45 38 34 36 32 32 32 30 31 32 30 30 26 24 23 22 20 19 20 18 19
Wind_Direction
218 223 226 227 232 237 243 247 251 259 266 273 282 286 292 294 302 302 304 309 319 331 336 356 26 53 44 30 13 5 5 16 6 352 359 336 359 348 346 345 337 350 312
214 218 222 225 232 238 243 249 252 256 263 273 278 288 289 298 303 303 306 309 329 340 352 45 70 44 33 25 27 27 39 48 39 18 359 1 354 347 350 348 352 345 346
212 214 218 221 223 227 235 245 251 254 260 266 274 283 288 300 297 300 310 323 339 356 60 76 77 50 41 33 63 57 45 47 37 25 10 360 359 350 357 355 357 356 328
211 214 215 220 223 226 236 240 246 250 254 258 269 275 288 294 286 286 311 328 360 77 110 94 85 50 44 52 51 47 50 39 30 23 14 5 1 2 4 4 4 360 351
209 211 211 213 220 224 228 233 241 244 247 254 262 272 283 280 279 292 307 310 92 86 115 93 83 62 63 72 67 58 53 49 37 23 17 9 4 4 3 5 9 11 354
210 211 213 215 217 220 225 230 235 241 244 249 258 266 258 254 261 299 304 178 113 103 112 97 83 70 69 64 56 53 54 57 47 41 22 13 5 5 3 10 12 11 7
208 210 211 214 216 218 224 233 235 235 240 245 254 254 242 238 257 241 181 160 121 128 113 96 106 82 78 64 60 53 55 53 47 38 30 18 10 7 10 12 11 5 8
203 204 207 210 212 218 223 228 230 230 237 241 246 241 219 219 225 218 180 160 137 138 124 114 100 92 92 86 83 69 65 56 52 44 34 28 28 22 31 8 17 9 28
200 200 202 205 207 212 217 222 225 226 232 235 233 208 228 218 212 189 175 184 162 149 139 127 106 105 96 88 86 75 71 57 36 38 38 29 29 30 35 28 28 31 25
199 197 198 199 203 208 215 219 218 220 225 215 216 215 205 209 202 187 178 201 175 163 154 140 125 116 105 95 94 79 78 68 61 45 36 25 22 23 36 39 34 38 34
195 196 196 197 202 206 209 212 211 212 206 199 204 217 203 198 198 184 182 189 180 161 159 150 146 133 118 105 98 83 75 69 57 43 35 34 37 32 38 39 36 44 51
190 193 194 195 197 201 204 205 204 204 205 202 216 208 200 187 188 184 184 190 179 164 155 158 157 146 138 121 99 77 76 71 61 49 39 38 35 39 32 39 31 41 49
186 188 189 190 193 198 198 199 201 205 204 217 214 211 200 190 188 188 186 187 187 172 167 175 162 153 146 129 111 93 74 81 69 58 46 39 38 40 48 44 39 32 51
183 185 185 185 191 191 195 203 195 206 202 212 213 212 202 199 194 192 192 193 192 186 178 172 169 161 147 152 122 89 105 99 91 76 59 47 46 50 52 57 61 53 53
181 183 184 188 193 196 191 201 204 210 213 215 222 219 209 211 212 205 204 201 194 193 185 176 172 168 163 155 149 136 109 96 92 85 69 55 55 55 56 62 65 58 57
187 190 189 190 189 193 202 206 214 213 220 220 221 219 209 218 209 204 205 208 201 185 185 172 173 172 171 171 163 151 141 120 113 97 81 71 62 73 67 64 66 64 61
182 195 189 185 188 191 195 197 208 215 214 207 201 207 206 206 205 201 202 203 200 190 180 180 183 180 181 180 174 166 155 149 132 120 102 86 73 69 76 74 71 71 71
178 181 174 181 183 186 195 196 201 207 211 207 201 204 200 194 200 202 198 199 195 194 185 183 188 187 186 183 180 173 172 152 145 135 117 105 95 84 81 83 83 86 86
138 152 152 149 155 176 189 196 196 199 202 210 209 207 213 200 192 201 204 212 204 199 192 187 188 190 189 182 182 182 177 164 158 148 137 126 114 105 97 94 99 100 96
129 132 121 104 123 149 171 196 205 207 209 212 220 218 216 200 196 200 202 203 210 203 199 195 191 188 190 187 183 185 179 179 167 156 155 143 134 125 117 111 109 104 97
128 148 148 143 128 129 184 193 209 212 215 214 220 225 227 225 226 216 208 211 207 208 204 198 196 197 187 187 187 186 187 181 175 169 166 158 148 146 136 130 121 115 110
127 173 175 157 159 234 247 226 221 232 229 226 232 233 230 227 224 220 215 214 217 210 206 204 196 204 197 186 190 187 190 187 182 177 170 169 160 156 149 144 138 135 123
65 342 153 159 210 252 272 259 246 244 241 241 235 254 250 247 233 228 220 217 214 210 211 207 202 198 204 201 202 192 192 192 189 183 178 173 171 166 165 159 157 153 149
343 332 32 18 328 291 269 261 272 260 251 249 247 254 258 254 245 245 239 227 217 214 210 218 212 203 206 210 207 202 192 195 192 189 183 178 177 177 171 170 166 170 173
292 338 33 339 296 271 281 266 245 257 267 259 271 264 262 259 258 264 251 233 226 223 218 216 220 215 219 217 215 210 199 201 193 192 187 185 183 183 181 177 176 172 174
329 312 343 329 327 314 278 269 273 267 261 278 276 278 277 270 268 257 261 243 241 226 222 218 219 223 224 221 219 216 212 207 204 200 191 189 189 187 189 186 184 180 179